Find Starlink 5849

NORAD ID: 55924 Int'l Des: 2023-037 Owner: SPXS Country: US Constellation: starlink operational
LEOCIRCULAR

Live Position

Loading 3D Globe...

About Starlink 5849

Description loading...

Upcoming Passes

Passes for default location (London). Set your location on the main map for personalized predictions.

Altitude History

Loading altitude history...

Two-Line Element Set

1 55924U 23037L 26121.48135045 .00000802 00000-0 74986-4 0 9990
2 55924 69.9992 151.5202 0003715 270.0685 90.0049 14.98329570171886
Epoch: May 1, 2026 • Age: 17 hours

Current Status

Altitude 592.8 km
Velocity 7.56 km/s
Sub-Earth Point -61.95°S, 173.79°E
Launch Date Mar 17, 2023
Age 3.1 years
Type internet

Technical Details

Classification Payload
Mass 305.00 kg
Dry Mass 290.00 kg
Total Mass 305.00 kg
Length 0.20 m
Diameter 2.80 m
Span 9.00 m
Shape Box + pan
Manufacturer SPXS
Bus Type Starlink
Phase Status In Orbit
Owner/State SPXS/US

Most Searched